SCP
1 2 2 2 1 2 2 2 1 1 1 1 1 1 1 1 1 2 2 3 3 2 2 2 1 1 1 1 1 2 2 1 1 1 1 2 2 2 2 2 2 2 2
2 2 2 2 2 2 2 1 1 1 1 1 1 1 1 1 2 2 2 2 2 2 2 2 2 1 1 1 1 2 2 1 1 2 2 2 2 3 2 2 2 2 2
2 2 2 2 2 2 2 2 1 1 1 1 1 1 1 2 2 2 2 2 1 1 2 2 2 2 2 2 2 2 2 2 2 2 2 2 2 3 2 2 1 1 1
3 3 3 2 2 2 2 2 2 1 1 1 1 1 2 2 2 2 2 2 1 1 1 2 2 2 2 2 2 2 2 2 2 2 2 2 2 2 2 1 1 1 1
3 3 3 3 2 2 2 2 2 2 1 1 1 1 2 2 2 2 2 2 1 1 1 1 2 2 2 2 2 1 1 2 2 2 2 2 2 2 1 1 1 1 1
3 3 3 3 3 2 2 2 2 2 2 2 1 1 2 2 2 2 2 2 2 1 1 2 2 2 2 2 1 1 1 1 2 2 2 2 2 1 1 1 1 1 1
3 3 4 4 3 3 3 3 2 2 2 2 2 1 1 1 2 2 2 2 1 1 1 2 2 2 2 2 1 1 1 1 2 2 1 2 2 2 1 1 1 1 1
2 3 3 4 4 4 3 3 3 2 2 2 2 1 1 1 1 1 2 1 1 1 1 1 2 2 2 2 1 1 1 1 2 2 2 2 2 2 1 1 1 1 1
2 2 3 3 4 4 3 3 3 3 2 2 2 2 2 1 1 1 1 1 1 1 1 1 1 2 2 2 2 1 1 2 2 1 1 1 1 1 1 1 1 1 1
2 2 3 4 4 4 3 3 3 3 3 2 2 2 2 2 1 1 1 1 1 1 1 1 1 2 2 2 2 2 2 1 1 1 1 1 1 1 1 1 1 1 1
3 3 3 4 5 4 3 3 3 3 3 2 2 2 1 1 1 1 1 1 1 1 1 1 1 2 2 2 2 1 1 1 1 1 1 1 1 1 1 1 1 1 1
3 3 4 5 5 4 4 3 3 3 2 2 1 1 1 1 1 1 1 1 1 1 1 1 2 2 2 1 1 1 1 1 1 1 1 1 1 1 1 1 1 1 1
3 3 4 5 5 4 4 4 3 3 2 1 1 1 1 1 1 1 1 1 1 1 1 1 2 2 1 1 1 1 1 1 1 1 1 1 1 1 1 1 1 1 1
3 3 4 5 5 5 4 4 3 2 2 1 1 1 1 1 1 1 1 1 1 1 1 1 1 1 1 1 1 1 1 1 0 0 0 0 0 0 0 0 0 1 1
3 3 4 4 5 5 5 4 3 2 2 2 1 1 1 1 1 1 1 1 1 1 1 1 1 1 1 1 1 1 1 0 0 0 0 0 0 0 0 0 0 0 0
4 3 3 4 4 5 5 4 3 2 2 2 2 1 1 1 1 1 1 1 1 1 1 1 1 1 1 1 1 1 1 1 0 0 0 0 0 0 0 0 0 0 0
4 3 3 3 4 4 4 3 2 2 2 2 1 1 1 1 1 1 1 1 1 1 1 1 1 1 1 1 1 1 1 1 0 0 0 0 0 0 0 0 0 0 0
4 4 3 3 3 3 3 3 3 2 2 1 1 1 1 1 1 1 1 1 1 1 1 1 1 1 1 1 1 1 1 1 0 0 0 0 0 0 0 0 0 0 0
4 4 3 3 3 3 3 4 4 3 2 2 1 1 1 1 1 1 1 1 1 1 1 1 1 1 1 1 1 1 1 1 0 0 0 0 0 0 0 0 0 0 0
4 3 3 3 2 2 2 3 4 4 3 2 2 2 1 1 1 1 1 1 1 1 1 1 1 1 1 1 1 1 1 1 1 1 1 1 0 0 0 0 0 0 0
3 3 3 3 2 2 2 2 3 4 4 3 2 2 1 1 1 1 1 1 1 1 1 1 1 1 1 1 1 1 1 1 1 1 2 2 2 1 1 0 0 0 0
4 3 3 3 2 1 1 1 2 3 4 4 3 2 1 1 1 1 1 1 1 1 1 1 1 1 1 1 1 1 1 1 1 2 2 3 4 4 3 1 0 0 0
4 4 3 3 2 1 1 1 1 3 4 4 3 2 2 1 1 1 1 1 1 1 1 1 1 1 1 1 2 1 1 1 1 2 2 2 3 4 3 1 0 0 0
5 5 4 3 3 2 1 0 1 2 3 3 3 3 2 2 2 1 1 1 1 1 1 0 1 1 1 1 2 1 1 1 1 1 1 1 2 3 2 1 0 0 0
6 6 5 4 3 2 1 0 1 2 2 2 2 2 2 1 1 1 1 1 1 1 1 1 0 0 0 1 1 1 1 1 1 1 1 2 2 3 3 2 1 0 0
6 6 5 4 3 3 1 1 1 2 2 2 2 2 1 1 1 1 1 1 1 1 1 1 1 0 0 0 1 1 1 1 1 1 1 2 3 4 4 3 1 0 0
Wind_Speed
1 1 1 2 1 1 1 1 1 1 1 1 1 0 0 2 3 3 4 7 7 7 8 8 8 8 7 7 7 7 6 6 5 4 4 6 6 6 6 5 4 4 4
2 1 1 1 1 1 1 0 1 0 0 1 1 1 1 1 2 3 5 5 6 7 8 8 8 8 7 8 8 7 6 6 5 4 5 6 7 7 6 5 5 4 4
2 2 1 1 1 1 1 1 0 0 1 1 1 1 0 1 1 2 4 4 4 6 7 8 8 8 8 8 8 7 7 6 5 4 5 6 7 7 6 5 5 4 4
2 1 1 1 1 1 1 1 0 0 0 1 1 0 0 1 1 2 2 3 3 3 5 8 8 8 9 9 8 8 7 6 6 5 6 7 8 7 6 5 5 5 4
3 2 1 1 1 1 1 1 1 0 0 1 1 1 0 0 1 2 3 3 3 4 4 6 8 8 8 8 8 8 7 7 7 6 7 7 7 7 6 5 5 4 4
3 2 2 2 1 1 1 2 1 0 1 1 1 0 0 1 1 1 2 3 3 4 5 5 5 6 8 8 8 8 8 7 7 7 7 7 7 6 6 5 4 4 4
2 1 0 2 1 1 2 2 1 1 1 0 0 1 1 1 1 1 1 2 2 3 4 5 4 4 4 8 8 8 8 8 7 7 7 7 7 6 6 5 5 4 4
2 3 2 2 2 2 2 1 1 1 1 1 0 1 1 1 1 2 2 2 2 2 3 4 3 4 4 4 5 9 8 8 8 7 7 6 6 6 6 6 5 5 5
3 2 2 2 2 2 2 2 2 2 1 1 1 1 1 1 1 1 1 2 2 2 2 3 4 4 4 4 5 6 7 7 7 7 6 6 6 6 7 7 6 6 6
2 3 3 2 2 1 2 3 3 2 2 2 1 2 2 1 1 1 1 1 2 2 2 2 2 3 4 4 5 7 8 7 7 6 6 6 6 6 6 6 7 7 7
3 3 2 2 2 2 2 2 1 2 2 2 1 1 2 2 2 2 2 1 1 1 2 2 2 2 3 4 4 6 8 7 6 6 6 6 6 6 7 7 7 7 8
2 3 2 2 2 2 1 2 2 3 2 2 2 1 1 1 1 1 1 2 2 1 2 2 2 3 3 4 6 8 8 7 7 6 6 6 6 6 7 7 7 7 7
2 2 2 2 2 2 2 2 2 3 3 3 2 2 2 2 1 1 1 1 1 1 1 2 2 3 3 3 4 9 8 8 7 7 6 6 5 6 6 6 6 7 7
2 3 2 2 2 2 2 2 2 3 3 3 3 2 2 2 2 1 1 1 1 1 1 2 2 2 2 3 5 8 6 8 8 7 7 6 6 6 6 6 6 6 6
1 3 3 3 3 2 2 2 2 3 2 2 2 2 2 2 2 2 1 1 2 2 2 2 1 2 2 3 6 4 5 8 9 8 8 7 7 7 6 6 6 6 6
1 2 3 3 3 3 2 2 2 2 2 2 2 2 2 2 2 2 2 1 1 1 1 2 1 2 2 2 5 3 3 9 9 10 9 8 8 7 7 7 7 6 6
1 2 2 3 3 3 3 3 3 3 3 3 3 3 3 3 2 2 2 1 1 1 1 1 1 1 2 2 2 2 3 5 6 10 10 9 9 8 8 8 7 7 7
1 1 1 2 3 3 3 3 4 3 3 3 3 3 3 3 3 2 2 1 1 1 1 1 1 2 2 3 3 3 3 4 4 8 11 10 10 9 9 8 7 7 6
1 1 1 2 2 2 3 3 3 3 3 3 3 3 3 3 2 2 2 2 1 1 1 1 2 1 1 2 2 3 3 2 4 5 9 10 10 9 9 9 8 7 7
2 2 2 2 3 3 3 3 3 3 3 3 3 3 2 2 2 2 3 2 2 1 1 1 1 2 2 2 2 2 2 2 2 3 4 5 7 9 9 9 9 9 8
3 2 2 2 3 2 2 2 2 3 3 2 2 2 3 2 2 1 2 1 2 1 1 1 1 1 1 1 2 2 2 2 2 2 1 2 3 3 5 7 9 9 10
2 2 2 3 3 2 0 0 2 3 2 2 2 2 3 3 4 3 1 0 1 2 1 1 1 1 1 1 1 2 1 1 1 1 1 2 3 3 4 4 8 11 12
1 2 2 2 1 1 1 1 2 3 2 2 2 2 3 3 4 3 4 4 2 2 3 2 2 2 2 1 1 2 1 1 2 2 1 2 2 3 3 4 11 12 12
2 2 2 2 1 2 1 1 3 3 3 3 3 3 3 2 3 2 4 4 4 3 4 3 3 3 2 1 1 2 3 3 3 3 3 2 2 2 2 2 8 11 11
2 3 3 3 2 2 3 3 2 3 3 3 3 3 3 3 3 3 3 3 3 3 5 4 4 4 3 3 2 2 2 2 3 2 2 2 2 2 2 2 5 10 10
3 3 3 3 3 3 4 4 3 3 3 3 3 3 3 3 3 3 3 3 4 4 3 3 3 4 5 6 6 5 3 3 3 3 2 2 2 2 2 2 2 4 5
Wind_Direction
149 134 134 151 173 181 164 168 170 217 282 294 278 246 304 130 137 128 141 159 162 166 171 172 171 170 170 169 167 162 163 167 171 178 184 175 170 168 158 155 155 152 148
123 129 129 145 146 125 99 130 180 146 331 300 323 325 347 78 120 135 135 154 170 172 169 172 176 177 178 174 168 168 173 174 178 188 183 170 165 164 160 160 160 160 160
131 136 141 157 142 158 138 131 263 128 200 233 218 266 349 37 101 128 141 157 168 180 179 176 177 178 178 176 173 174 176 177 175 178 170 165 158 154 158 161 165 168 169
151 163 167 137 185 173 136 152 194 351 332 300 277 259 157 148 147 155 157 165 166 167 173 176 176 178 178 178 179 180 180 176 167 161 156 152 151 154 159 166 175 180 181
165 189 151 131 207 159 155 158 94 97 290 262 245 214 159 223 171 173 160 162 165 163 161 168 173 178 180 178 181 183 180 175 169 164 155 153 157 164 168 176 184 191 190
166 184 149 165 215 149 107 85 95 254 226 268 283 19 114 197 228 179 178 168 167 171 162 156 166 176 179 180 183 183 181 175 172 169 164 164 169 173 179 182 189 195 199
169 173 160 154 189 158 147 147 146 243 255 283 293 254 202 191 208 193 191 177 172 166 155 160 168 163 170 184 188 187 186 181 179 174 174 177 180 183 187 190 198 203 199
181 197 179 195 183 169 173 173 171 226 251 198 223 282 249 206 216 204 186 187 181 168 161 166 165 167 164 158 177 183 185 181 180 183 180 183 191 197 203 208 213 209 199
188 216 180 196 178 187 182 197 199 224 242 252 230 210 266 248 170 222 210 168 167 172 174 168 175 163 159 149 156 179 177 182 187 190 189 194 197 206 217 221 220 208 205
199 205 195 192 196 199 177 212 202 223 225 251 259 234 233 252 166 204 247 182 186 191 193 188 164 156 146 141 143 158 174 184 192 195 197 204 207 214 221 225 222 215 212
201 209 190 181 186 206 211 225 186 223 236 244 254 264 259 247 229 192 209 202 201 185 177 175 163 155 150 144 149 162 172 178 188 194 199 206 211 218 223 226 227 222 218
183 191 186 164 177 206 220 208 216 232 242 268 281 282 259 246 249 231 202 199 196 209 191 166 160 157 167 149 159 158 170 177 187 196 201 205 212 218 224 228 229 225 222
172 170 175 159 179 200 218 212 216 238 234 245 249 260 265 262 273 254 209 216 185 197 189 184 175 160 165 140 147 163 175 180 188 198 202 206 212 221 226 230 230 228 224
167 155 169 174 188 201 216 196 215 225 229 236 247 255 273 270 270 251 227 196 201 219 202 201 157 157 156 146 155 174 179 183 191 198 203 207 212 219 226 228 227 228 224
178 164 181 183 192 203 215 195 213 229 223 223 243 252 257 275 266 269 254 208 199 216 221 199 173 158 152 135 161 188 175 187 194 200 206 210 215 219 224 224 222 222 219
190 189 190 190 197 202 202 201 217 220 219 219 224 236 238 273 280 275 275 261 222 206 220 208 188 160 156 167 176 203 187 183 196 202 206 211 216 218 219 219 221 219 220
213 216 208 200 202 202 206 209 224 217 220 220 230 227 221 240 270 274 266 269 254 211 213 213 160 149 169 172 174 210 192 188 197 205 206 208 213 216 218 218 218 219 218
233 229 224 230 221 209 209 211 230 227 220 226 232 235 229 230 233 269 279 269 258 202 189 214 207 184 197 188 182 215 220 207 200 203 203 206 210 214 217 217 217 215 212
256 237 221 242 244 225 221 220 224 234 227 227 227 227 223 226 226 244 255 261 254 236 182 202 212 185 193 201 190 223 239 232 233 199 199 207 213 214 215 215 213 210 207
240 242 230 238 241 229 228 233 236 241 236 225 215 217 213 206 210 248 245 254 255 253 228 221 220 194 199 209 195 217 238 224 242 215 193 197 208 212 216 214 208 204 203
235 244 253 249 255 242 242 258 260 243 243 243 222 206 203 190 185 219 253 251 248 238 236 234 242 223 208 189 208 232 230 229 235 223 193 203 191 202 212 219 215 207 203
241 239 247 251 254 263 222 279 285 263 242 235 230 216 208 198 194 192 189 159 275 243 244 260 266 259 249 225 223 250 246 235 251 240 200 236 192 199 204 200 202 201 202
269 272 263 259 250 297 346 329 287 276 254 236 226 231 243 217 205 190 200 209 236 249 240 249 258 263 258 257 276 279 279 261 258 242 220 258 236 219 213 202 188 193 200
240 258 265 265 251 252 244 281 297 266 256 239 229 226 229 237 238 224 222 212 215 226 233 232 249 270 276 308 276 255 255 253 251 244 199 232 246 237 227 193 189 191 198
240 250 252 254 240 232 225 220 248 267 254 236 233 230 223 226 220 232 234 219 221 230 236 242 239 234 237 253 256 280 269 259 260 247 208 211 241 248 231 205 194 196 202
244 251 251 248 240 230 220 208 210 255 255 242 229 212 204 212 204 206 229 227 233 242 247 236 238 242 236 234 227 226 244 256 260 256 230 207 227 231 255 221 177 185 207